Weather History for KMLB - July, 2013

Change the Weather History Date:

Sunday, July 28, 2013

  Actual Average Record
Temperature  
Mean Temperature 83 °F 82 °F  
Max Temperature 89 °F 91 °F 98 °F (1999)
Min Temperature 76 °F 73 °F 67 °F (1938)
Degree Days  
Heating Degree Days 0 0  
Month to date heating degree days 0 0  
Since 1 June heating degree days 0 0  
Since 1 July heating degree days 0 0  
Cooling Degree Days 18 17  
Month to date cooling degree days 480 465  
Year to date cooling degree days 1839 1653  
Since 1 June cooling degree days 978 927  
Growing Degree Days 32 (Base 50)    
Moisture  
Dew Point 74 °F    
Average Humidity 78    
Maximum Humidity 100    
Minimum Humidity 55    
Precipitation  
Precipitation 0.54 in 0.21 in 1.65 in (1956)
Month to date precipitation 6.91 5.33  
Year to date precipitation 28.98 25.54  
Sea Level Pressure  
Sea Level Pressure 30.01 in    
Wind  
Wind Speed 4 mph (SE)    
Max Wind Speed 24 mph    
Max Gust Speed 30 mph    
Visibility 9 miles    
Events Rain    
T = Trace of Precipitation, MM = Missing Value Source: NWS Daily Summary

Daily Weather History Graph

Daily Weather History Graph

Search for Another Location

Airport or City:

Trip Planner

Search our weather history database for the weather conditions in past years. The results will help you decide how hot, cold, wet, or windy it might be!

Date:

Astronomy

Jul. 28, 2013 Rise Set
Actual Time 6:42 AM EDT 8:14 PM EDT
Civil Twilight 6:17 AM EDT 8:40 PM EDT
Nautical Twilight 5:46 AM EDT 9:10 PM EDT
Astronomical Twilight 5:14 AM EDT 9:42 PM EDT
Moon No Moon Rise 12:44 PM EDT (7/28)
Length of Visible Light 14h 23m
Length of Day
13h 32m
Waning Gibbous, 61% of the Moon is Illuminated
Jul 28
Waning Gibbous
Jul 29
Last Quarter
Aug 6
New
Aug 14
First Quarter
Aug 20
Full

Hourly Weather History & Observations

Time (EDT) Temp. Heat Index Dew Point Humidity Pressure Visibility Wind Dir Wind Speed Gust Speed Precip Events Conditions
12:53 AM 78.1 °F - 75.9 °F 93% 29.99 in 10.0 mi Calm Calm - N/A   Clear
1:53 AM 78.1 °F - 75.9 °F 93% 29.97 in 10.0 mi Calm Calm - N/A   Mostly Cloudy
2:53 AM 78.1 °F - 73.9 °F 87% 29.95 in 10.0 mi SSE 4.6 mph - N/A   Clear
3:53 AM 77.0 °F - 75.0 °F 94% 29.94 in 10.0 mi South 3.5 mph - N/A   Mostly Cloudy
4:53 AM 77.0 °F - 75.0 °F 94% 29.96 in 10.0 mi SSW 4.6 mph - N/A   Scattered Clouds
5:53 AM 77.0 °F - 75.0 °F 94% 29.97 in 10.0 mi South 4.6 mph - N/A   Partly Cloudy
6:53 AM 75.9 °F - 75.0 °F 97% 29.99 in 7.0 mi SSW 3.5 mph - N/A   Clear
7:53 AM 78.1 °F - 75.9 °F 93% 30.00 in 9.0 mi SW 3.5 mph - N/A   Clear
8:53 AM 81.0 °F 86.7 °F 75.0 °F 82% 30.01 in 10.0 mi WSW 4.6 mph - N/A   Clear
9:53 AM 82.9 °F 89.4 °F 73.9 °F 74% 30.02 in 10.0 mi Calm Calm - N/A   Scattered Clouds
10:53 AM 84.9 °F 91.4 °F 73.0 °F 67% 30.02 in 10.0 mi NE 4.6 mph - N/A   Clear
11:53 AM 88.0 °F 94.7 °F 72.0 °F 59% 30.03 in 10.0 mi NE 3.5 mph - N/A   Clear
12:53 PM 87.1 °F 94.5 °F 73.0 °F 63% 30.03 in 10.0 mi ENE 8.1 mph - N/A   Scattered Clouds
1:53 PM 88.0 °F 95.6 °F 73.0 °F 61% 30.02 in 10.0 mi East 5.8 mph - N/A   Scattered Clouds
2:53 PM 87.1 °F 95.4 °F 73.9 °F 65% 30.03 in 10.0 mi ESE 13.8 mph - N/A   Clear
3:11 PM 82.4 °F 89.5 °F 75.2 °F 79% 30.03 in 1.8 mi SE 18.4 mph 26.5 mph 0.09 in Rain Heavy Rain
3:51 PM 78.8 °F - 75.2 °F 89% 30.00 in 6.0 mi East 5.8 mph - 0.54 in Rain Rain
3:53 PM 79.0 °F - 75.0 °F 88% 30.00 in 6.0 mi East 4.6 mph - 0.54 in Rain Light Rain
4:53 PM 84.9 °F 90.1 °F 71.1 °F 63% 30.00 in 10.0 mi South 4.6 mph - 0.00 in   Clear
5:53 PM 87.1 °F 91.3 °F 69.1 °F 55% 30.02 in 10.0 mi South 10.4 mph - N/A   Clear
6:53 PM 84.9 °F 88.8 °F 69.1 °F 59% 30.01 in 10.0 mi South 5.8 mph - N/A   Clear
7:53 PM 80.1 °F 84.2 °F 73.0 °F 79% 30.05 in 10.0 mi NW 8.1 mph - N/A   Partly Cloudy
8:53 PM 79.0 °F - 72.0 °F 79% 30.05 in 10.0 mi Calm Calm - N/A   Clear
9:53 PM 80.1 °F 84.2 °F 73.0 °F 79% 30.06 in 10.0 mi East 3.5 mph - N/A   Clear
10:53 PM 81.0 °F 85.8 °F 73.0 °F 77% 30.07 in 10.0 mi Calm Calm - N/A   Clear
11:53 PM 80.1 °F 84.2 °F 73.0 °F 79% 30.07 in 10.0 mi SE 3.5 mph - N/A   Clear